Omaha Millard, NE

3:49 AM CDT on April 27, 2017 (GMT -0500)
Millard Municipal

Weather History for KMLE - January, 2013

Change the Weather History Date:

Monday, January 7, 2013

  Actual Average (KOFF) Record (KOFF)
Temperature  
Mean Temperature 31 °F -  
Max Temperature 39 °F 32 °F 66 °F (2003)
Min Temperature 23 °F 14 °F -5 °F (2014)
Degree Days  
Heating Degree Days 34    
Moisture  
Dew Point 24 °F    
Average Humidity 77    
Maximum Humidity 97    
Minimum Humidity 59    
Precipitation  
Precipitation 0.00 in - - ()
Sea Level Pressure  
Sea Level Pressure 30.02 in    
Wind  
Wind Speed 4 mph (South)    
Max Wind Speed 10 mph    
Max Gust Speed -    
Visibility 9 miles    
Events Fog    
Averages and records for this station are not official NWS values.
T = Trace of Precipitation, MM = Missing Value Source: NWS Daily Summary

Daily Weather History Graph

Daily Weather History Graph

Search for Another Location

Airport or City:

Trip Planner

Search our weather history database for the weather conditions in past years. The results will help you decide how hot, cold, wet, or windy it might be!

Date:

Astronomy

Jan. 07, 2013 Rise Set
Actual Time 7:49 AM CST 5:12 PM CST
Civil Twilight 7:19 AM CST 5:43 PM CST
Nautical Twilight 6:44 AM CST 6:17 PM CST
Astronomical Twilight 6:11 AM CST 6:50 PM CST
Moon 3:14 AM CST (1/7) 1:24 PM CST (1/7)
Length of Visible Light 10h 23m
Length of Day
9h 22m
Waning Crescent, 22% of the Moon is Illuminated
Jan 7
Waning Crescent
Jan 11
New
Jan 18
First Quarter
Jan 26
Full
Feb 3
Last Quarter

Hourly Weather History & Observations

Time (CST) Temp. Windchill Dew Point Humidity Pressure Visibility Wind Dir Wind Speed Gust Speed Precip Events Conditions
12:15 AM 25.3 °F - 21.7 °F 86% 30.12 in 10.0 mi Calm Calm - N/A   Clear
12:35 AM 27.1 °F 20.7 °F 22.6 °F 83% 30.11 in 10.0 mi SE 5.8 mph - N/A   Clear
12:55 AM 27.5 °F 23.6 °F 22.1 °F 80% 30.11 in 10.0 mi SSE 3.5 mph - N/A   Clear
1:15 AM 27.5 °F 22.2 °F 22.1 °F 80% 30.11 in 10.0 mi SE 4.6 mph - N/A   Clear
1:35 AM 27.1 °F 18.9 °F 22.1 °F 81% 30.09 in 10.0 mi SE 8.1 mph - N/A   Clear
1:55 AM 27.5 °F 22.2 °F 22.1 °F 80% 30.09 in 10.0 mi SE 4.6 mph - N/A   Clear
2:15 AM 27.9 °F 20.6 °F 22.3 °F 80% 30.09 in 10.0 mi SE 6.9 mph - N/A   Clear
2:35 AM 28.8 °F 21.7 °F 22.3 °F 77% 30.09 in 10.0 mi SE 6.9 mph - N/A   Clear
2:55 AM 29.3 °F 25.6 °F 22.5 °F 76% 30.09 in 10.0 mi SE 3.5 mph - N/A   Clear
3:15 AM 29.8 °F 23.0 °F 22.5 °F 74% 30.09 in 10.0 mi SSE 6.9 mph - N/A   Clear
3:35 AM 30.0 °F 22.4 °F 22.5 °F 73% 30.07 in 10.0 mi SSE 8.1 mph - N/A   Clear
3:55 AM 29.7 °F 23.7 °F 22.3 °F 74% 30.07 in 10.0 mi SSE 5.8 mph - N/A   Clear
4:15 AM 29.7 °F 23.7 °F 21.9 °F 73% 30.06 in 10.0 mi SE 5.8 mph - N/A   Clear
4:35 AM 29.5 °F 23.4 °F 22.1 °F 74% 30.05 in 10.0 mi SE 5.8 mph - N/A   Clear
4:55 AM 30.6 °F 23.1 °F 22.6 °F 72% 30.04 in 10.0 mi SE 8.1 mph - N/A   Clear
5:15 AM 30.4 °F 23.6 °F 22.3 °F 72% 30.03 in 10.0 mi SE 6.9 mph - N/A   Clear
5:35 AM 29.7 °F 20.7 °F 21.9 °F 73% 30.02 in 10.0 mi SE 10.4 mph - N/A   Clear
6:35 AM 31.5 °F - 22.6 °F 70% 30.03 in 10.0 mi Calm Calm - N/A   Clear
6:55 AM 31.5 °F 26.8 °F 22.8 °F 70% 30.03 in 10.0 mi South 4.6 mph - N/A   Clear
7:15 AM 30.9 °F 23.5 °F 22.6 °F 71% 30.02 in 10.0 mi SSE 8.1 mph - N/A   Clear
7:35 AM 31.6 °F 28.3 °F 23.0 °F 70% 30.02 in 10.0 mi SSE 3.5 mph - N/A   Clear
7:55 AM 31.8 °F - 23.0 °F 70% 30.01 in 10.0 mi Calm Calm - N/A   Clear
8:15 AM 31.1 °F - 22.6 °F 71% 30.02 in 10.0 mi Calm Calm - N/A   Clear
8:35 AM 32.0 °F 24.8 °F 23.5 °F 71% 30.01 in 10.0 mi SE 8.1 mph - N/A   Clear
8:55 AM 32.0 °F 28.7 °F 23.5 °F 71% 30.03 in 10.0 mi SE 3.5 mph - N/A   Clear
9:15 AM 31.8 °F 27.3 °F 23.5 °F 71% 30.03 in 10.0 mi SE 4.6 mph - N/A   Clear
9:35 AM 32.0 °F - 24.1 °F 73% 30.03 in 10.0 mi Calm Calm - N/A   Clear
9:55 AM 33.6 °F - 25.2 °F 71% 30.03 in 10.0 mi Calm Calm - N/A   Clear
10:15 AM 36.7 °F - 25.7 °F 64% 30.04 in 10.0 mi Calm Calm - N/A   Clear
10:35 AM 37.8 °F 32.5 °F 25.7 °F 62% 30.04 in 10.0 mi SW 6.9 mph - N/A   Clear
10:55 AM 38.3 °F 33.2 °F 25.7 °F 61% 30.04 in 10.0 mi SW 6.9 mph - N/A   Clear
11:15 AM 39.2 °F 35.0 °F 26.1 °F 59% 30.04 in 10.0 mi SSW 5.8 mph - N/A   Clear
11:35 AM 38.8 °F 33.8 °F 26.2 °F 61% 30.03 in 10.0 mi SW 6.9 mph - N/A   Clear
11:55 AM 38.8 °F 33.2 °F 26.8 °F 62% 30.02 in 10.0 mi SW 8.1 mph - N/A   Clear
12:15 PM 39.2 °F 34.2 °F 26.6 °F 61% 30.00 in 10.0 mi South 6.9 mph - N/A   Clear
12:35 PM 39.2 °F 35.0 °F 26.6 °F 61% 29.99 in 10.0 mi SW 5.8 mph - N/A   Clear
1:15 PM 39.2 °F 34.2 °F 26.6 °F 61% 29.99 in 10.0 mi West 6.9 mph - N/A   Clear
1:35 PM 39.2 °F 33.0 °F 26.8 °F 61% 29.98 in 10.0 mi SW 9.2 mph - N/A   Clear
1:55 PM 39.2 °F 34.2 °F 27.0 °F 62% 29.99 in 10.0 mi West 6.9 mph - N/A   Clear
2:15 PM 38.7 °F 32.9 °F 27.3 °F 64% 29.99 in 10.0 mi West 8.1 mph - N/A   Clear
2:35 PM 38.3 °F 33.2 °F 27.1 °F 64% 29.99 in 10.0 mi WSW 6.9 mph - N/A   Clear
2:55 PM 38.5 °F 34.1 °F 27.1 °F 64% 29.99 in 10.0 mi WSW 5.8 mph - N/A   Clear
3:15 PM 38.3 °F 35.9 °F 27.3 °F 65% 29.99 in 10.0 mi WSW 3.5 mph - N/A   Clear
3:35 PM 37.9 °F 35.5 °F 27.1 °F 65% 30.00 in 10.0 mi WSW 3.5 mph - N/A   Clear
3:55 PM 37.8 °F 34.2 °F 27.1 °F 66% 30.00 in 10.0 mi West 4.6 mph - N/A   Clear
4:15 PM 37.6 °F - 27.3 °F 66% 30.00 in 10.0 mi Calm Calm - N/A   Clear
4:35 PM 36.7 °F - 27.3 °F 69% 29.98 in 10.0 mi Calm Calm - N/A   Clear
5:15 PM 35.1 °F - 27.0 °F 72% 29.98 in 10.0 mi Calm Calm - N/A   Clear
5:35 PM 32.9 °F - 27.1 °F 79% 29.98 in 10.0 mi Calm Calm - N/A   Clear
5:55 PM 32.0 °F - 27.0 °F 82% 30.00 in 10.0 mi Calm Calm - N/A   Clear
6:15 PM 31.3 °F - 26.6 °F 83% 30.00 in 10.0 mi Calm Calm - N/A   Clear
6:35 PM 30.2 °F - 26.6 °F 86% 30.00 in 10.0 mi Calm Calm - N/A   Clear
6:55 PM 29.3 °F - 26.4 °F 89% 30.00 in 10.0 mi Calm Calm - N/A   Clear
7:15 PM 28.9 °F - 26.4 °F 90% 30.00 in 10.0 mi Calm Calm - N/A   Clear
7:35 PM 28.4 °F - 26.1 °F 91% 29.99 in 10.0 mi Calm Calm - N/A   Clear
7:55 PM 27.5 °F - 26.1 °F 94% 29.99 in 10.0 mi Calm Calm - N/A   Clear
8:15 PM 27.3 °F - 25.7 °F 94% 29.99 in 10.0 mi Calm Calm - N/A   Clear
8:35 PM 26.6 °F - 25.3 °F 95% 29.99 in 7.0 mi Calm Calm - N/A   Clear
8:55 PM 25.9 °F - 24.8 °F 96% 29.98 in 7.0 mi Calm Calm - N/A   Clear
9:15 PM 25.3 °F - 24.4 °F 96% 29.99 in 5.0 mi Calm Calm - N/A   Clear
9:35 PM 25.0 °F - 24.1 °F 96% 29.98 in 4.0 mi Calm Calm - N/A   Clear
9:55 PM 24.6 °F - 23.9 °F 97% 29.98 in 0.8 mi Calm Calm - N/A   Mist
10:15 PM 24.1 °F - 23.4 °F 97% 29.97 in 4.0 mi Calm Calm - N/A   Clear
10:35 PM 23.9 °F - 23.0 °F 96% 29.97 in 0.8 mi Calm Calm - N/A   Mist
10:55 PM 23.4 °F - 22.6 °F 97% 29.96 in 2.5 mi Calm Calm - N/A   Clear
11:15 PM 23.0 °F - 22.1 °F 96% 29.96 in 0.5 mi Calm Calm - N/A Fog Light Freezing Fog
11:35 PM 23.0 °F - 22.1 °F 96% 29.96 in 2.5 mi Calm Calm - N/A   Clear
11:55 PM 24.3 °F - 23.5 °F 97% 29.95 in 7.0 mi Calm Calm - N/A   Clear